Regional Weather Roundup
Issued by NWS

Home | Current Version | Previous Version | Text Only | Print | Product List | Glossary On
Versions: 1 2 3 4 5 6 7 8 9 10 11 12 13 14 15 16 17 18 19 20 21 22 23 24 25 26 27 28 29 30 31 32 33 34 35 36 37 38 39 40 41 42 43 44 45 46 47 48 49 50
000
ASUS45 KCYS 012110
RWRWY

WYOMING REGIONAL WEATHER ROUNDUP
NATIONAL WEATHER SERVICE CHEYENNE WY
300 PM MDT WED APR 01 2015

NOTE:  "FAIR" INDICATES FEW OR NO CLOUDS BELOW 12,000 FEET
WITH NO SIGNIFICANT WEATHER AND/OR OBSTRUCTIONS TO VISIBILITY.

WYZ001-012200-
YELLOWSTONE NATIONAL PARK

CITY           SKY/WX    TMP DP  RH WIND       PRES   REMARKS
LK YELLOWSTONE   N/A     28  12  51 W12G23    29.94S WCI  18
W YELLOWSTONE  NOT AVBL

$$
WYZ002>013-054>058-071-098>099-012200-
NORTHERN WYOMING

CITY           SKY/WX    TMP DP  RH WIND       PRES   REMARKS
JACKSON        PTSUNNY   39  12  33 S12       29.97F WCI  32
CODY           PTSUNNY   45  16  31 NW14G24   29.89R
GREYBULL       PTSUNNY   53   7  15 NW23G32   29.84S
WORLAND        CLOUDY    51   9  18 W10       29.85F
SHERIDAN       CLOUDY    51  12  21 NW25G35   29.83F
BUFFALO        CLOUDY    46  13  26 N25G33    29.83S
GILLETTE       PTSUNNY   49  18  29 NW24G30   29.83F
HULETT         CLOUDY    46  21  36 NW9G16    29.83F
NEWCASTLE      FLURRIES  37  28  70 N21G29    29.86R WCI  27

$$
WYZ014>020-022>026-101>103-012200-
CENTRAL WYOMING

CITY           SKY/WX    TMP DP  RH WIND       PRES   REMARKS
BIG PINEY      FAIR      41   4  21 NW10      29.97F
PINEDALE       FAIR      37  10  32 NW17G24   29.97S WCI  28
DUBOIS         MOCLDY    36  -4  18 W18G31    29.89S WCI  25
LANDER         NOT AVBL
RIVERTON       FAIR      52   8  17 NW24G31   29.86S
CASPER         FAIR      49  28  44 N7        29.84F
DOUGLAS        FAIR      49  30  48 N17G29    29.85R

$$
WYZ021-027>030-104>119-012200-
SOUTHERN WYOMING

CITY           SKY/WX    TMP DP  RH WIND       PRES   REMARKS
EVANSTON       FAIR      42  10  27 W20       30.02F
KEMMERER       FAIR      39   5  24 W20G25    30.00S WCI  30
FORT BRIDGER   FAIR      45   3  17 W18G33    30.03S
ROCK SPRINGS   FAIR      45   1  16 W26G44    29.95F
DIXON          FAIR      53  11  18 W15       29.94F
RAWLINS        FAIR      50   1  13 W29G39    29.89F
SARATOGA       FAIR      50   9  18 W24G32    29.91F
LARAMIE        FAIR      50  21  32 NW24G31   29.85S
CHEYENNE       PTSUNNY   60  24  25 NW23G33   29.77F
TORRINGTON     FAIR      65  11  12 W21G35    29.71F
PINE BLUFFS    DRIZZLE   59  30  33 NW25G36   29.77R

$$


USA.gov is the U.S. government's official web portal to all federal, state and local government web resources and services.